Volver al catálogo

ETV-A1

ActivoCienciaSSO
NORAD 51060·PAYLOAD·🇬🇧 United Kingdom

Lanzado Jan 13, 2022 desde Cape Canaveral Space Force Station

Loading…

Próximos Pases (próximas 24 horas)

TLE

ActualizadoSource: Space-Track

Época: Sep 14, 2026, 15:47 UTC

1 51060U 22002CE  26257.65827559  .00009237  00000-0  21602-3 0  9992
2 51060  97.2785 323.7686 0005518  37.7415 322.4219 15.42355809259622

Sigue ETV-A1 en tiempo real con AllMySat

Download on the App Store